Probability
0 0 0 0 0 0 0 0 0 0 0 0 0 0 0 0 0 0 0 0 0 0 0 0 0 0 0 0 0 0 0 0 0 0 0 0 0 0 0 0 0 0 0
0 0 0 0 0 0 0 0 0 0 0 0 0 0 0 0 0 0 0 0 0 0 0 0 0 0 0 0 0 0 0 0 0 0 0 0 0 0 0 0 0 0 0
0 0 0 0 0 0 0 0 0 0 0 0 0 0 0 0 0 0 0 0 0 0 0 0 0 0 0 0 0 0 0 0 0 0 0 0 0 0 0 0 0 0 0
0 0 0 0 0 0 0 0 0 0 0 0 0 0 0 0 0 0 0 0 0 0 0 0 0 0 0 0 0 0 0 0 0 0 0 0 0 0 0 0 0 0 0
0 0 0 0 0 0 0 0 0 0 0 0 0 0 0 0 0 0 0 0 0 0 0 0 0 0 0 0 0 0 0 0 0 0 0 0 0 0 0 0 0 0 0
0 0 0 0 0 0 0 0 0 0 0 0 0 0 0 0 0 0 0 0 0 0 0 0 0 0 0 0 0 0 0 0 0 0 0 0 0 0 0 0 0 0 0
0 0 0 0 0 0 0 0 0 0 0 0 0 0 0 0 0 0 0 0 0 0 0 0 0 0 0 0 0 0 0 0 0 0 0 0 0 0 0 0 0 0 0
0 0 0 0 0 0 0 0 0 0 0 0 0 0 0 0 0 0 0 0 0 0 0 0 0 0 0 0 0 0 0 0 0 0 0 0 0 0 0 0 0 0 0
0 0 0 0 0 0 0 0 0 0 0 0 0 0 0 0 0 0 0 0 0 0 0 0 0 0 0 0 0 0 0 0 0 0 0 0 0 0 0 0 0 0 0
0 0 0 0 0 0 0 0 0 0 0 0 0 0 0 0 0 0 0 0 0 0 0 0 0 0 0 0 0 0 0 0 0 0 0 0 0 0 0 0 0 0 0
0 0 0 0 0 0 0 0 0 0 0 0 0 0 0 0 0 0 0 0 0 0 0 0 0 0 0 0 0 0 0 0 0 0 0 0 0 0 0 0 0 0 0
0 0 0 0 0 0 0 0 0 0 0 0 0 0 0 0 0 0 0 0 0 0 0 0 0 0 0 0 0 0 0 0 0 0 0 0 0 0 0 0 0 0 0
0 0 0 0 0 0 0 0 0 0 0 0 0 0 0 0 0 0 0 0 0 0 0 0 1 1 1 1 0 0 0 0 0 0 0 0 0 0 0 0 0 0 0
0 0 0 0 0 0 0 0 0 0 0 0 0 0 0 0 0 0 0 0 0 0 0 1 2 2 2 2 1 0 0 0 0 0 0 0 0 0 0 0 0 0 0
0 0 0 0 0 0 0 0 0 0 0 0 0 0 0 0 0 0 0 0 0 0 0 1 2 2 2 2 1 0 0 0 0 0 0 0 0 0 0 0 0 0 0
0 0 0 0 0 0 0 0 0 0 0 0 0 0 0 0 0 0 0 0 0 0 0 0 1 1 1 1 0 0 0 0 0 0 0 0 0 0 0 0 0 0 0
0 0 0 0 0 0 0 0 0 0 0 0 0 0 0 0 0 0 0 0 0 0 0 0 0 0 0 0 0 0 0 0 0 0 0 0 0 0 0 0 0 0 0
0 0 0 0 0 0 0 0 0 0 0 0 0 0 0 0 0 0 0 0 0 0 0 0 0 0 0 0 0 0 0 0 0 0 0 0 0 0 0 0 0 0 0
0 0 0 0 0 0 0 0 0 0 0 0 0 0 0 0 0 0 0 0 0 0 0 0 0 0 0 0 0 0 0 0 0 0 0 0 0 0 0 0 0 0 0
0 0 0 0 0 0 0 0 0 0 0 0 0 0 0 0 0 0 0 0 0 0 0 0 0 0 0 0 0 0 0 0 0 0 0 0 0 0 0 0 0 0 0
0 0 0 0 0 0 0 0 0 0 0 0 0 0 0 0 0 0 0 0 0 0 0 0 0 0 0 0 0 0 0 0 0 0 0 0 0 0 0 0 0 0 0
0 0 0 0 0 0 0 0 0 0 0 0 0 0 0 0 0 0 0 0 0 0 0 0 0 0 0 0 0 0 0 0 0 0 0 0 0 0 0 0 0 0 0
0 0 0 0 0 0 0 0 0 0 0 0 0 0 0 0 0 0 0 0 0 0 0 0 0 0 0 0 0 0 0 0 0 0 0 0 0 0 0 0 0 0 0
0 0 0 0 0 0 0 0 0 0 0 0 0 0 0 0 0 0 0 0 0 0 0 0 0 0 0 0 0 0 0 0 0 0 0 0 0 0 0 0 0 0 0
0 0 0 0 0 0 0 0 0 0 0 0 0 0 0 0 0 0 0 0 0 0 0 0 0 0 0 0 0 0 0 0 0 0 0 0 0 0 0 0 0 0 0
0 0 0 0 0 0 0 0 0 0 0 0 0 0 0 0 0 0 0 0 0 0 0 0 0 0 0 0 0 0 0 0 0 0 0 0 0 0 0 0 0 0 0
Wind_Speed
15 13 16 16 14 14 16 17 17 15 12 10 10 10 10 8 8 9 10 11 10 11 10 8 8 8 7 7 7 5 4 3 3 3 1 1 1 2 3 4 4 5 4
11 12 14 15 17 18 19 18 18 17 15 13 11 8 7 6 6 6 9 11 12 12 11 10 9 9 8 8 8 6 4 4 4 4 3 2 1 1 3 3 4 5 4
15 14 15 18 18 19 20 18 20 19 18 14 7 5 4 3 6 8 10 12 13 13 12 12 10 10 10 9 10 9 8 6 5 4 5 5 5 2 2 4 4 5 4
14 14 15 16 18 21 19 19 19 19 18 16 12 13 13 14 13 10 10 10 12 13 13 13 12 11 10 10 10 10 8 7 6 4 4 3 5 5 3 2 3 5 5
16 15 17 18 20 19 18 18 18 18 18 17 18 17 15 13 7 7 9 11 11 13 14 14 13 12 11 11 10 11 10 8 7 6 4 4 2 3 4 4 4 4 5
16 15 15 15 16 15 15 15 17 18 18 19 19 19 19 15 11 12 12 11 10 11 14 14 13 13 12 13 13 12 12 11 9 8 6 5 5 6 5 4 4 5 4
15 14 14 14 15 15 16 16 17 19 18 19 20 20 20 18 18 16 14 12 11 12 15 15 14 13 14 13 12 12 12 13 11 11 9 8 7 5 6 5 4 4 3
13 14 15 15 15 16 17 17 18 19 18 19 20 19 18 15 13 15 12 13 12 13 12 15 15 15 14 13 12 11 12 10 13 13 12 9 9 7 6 6 6 4 3
12 13 12 13 13 14 16 18 19 18 17 18 18 17 17 16 15 14 13 10 10 9 12 13 15 15 14 14 13 12 13 12 13 13 13 11 8 7 7 6 7 8 7
10 10 10 10 11 12 13 14 16 18 17 17 16 14 16 17 16 13 14 13 13 11 11 13 14 14 14 14 14 12 12 13 12 10 11 11 8 7 7 7 6 6 7
10 9 8 8 7 7 8 10 12 13 12 13 14 14 14 14 14 14 15 14 12 12 13 13 14 15 15 14 14 14 13 14 13 11 12 13 10 8 7 6 6 6 5
8 7 7 6 6 6 7 8 9 10 11 11 11 13 13 12 13 15 15 14 14 13 14 13 13 14 14 14 15 16 14 15 15 13 13 13 9 11 8 7 8 7 6
6 5 5 6 6 6 6 7 7 8 8 8 9 10 10 11 13 13 12 12 13 12 12 13 14 14 14 14 14 14 14 14 14 14 14 13 11 12 8 8 8 6 5
7 6 6 6 6 6 6 6 6 6 6 6 8 9 10 10 11 10 9 10 10 11 11 12 13 13 12 13 12 12 13 13 12 12 13 12 13 13 12 9 9 7 6
7 8 8 7 6 6 6 6 6 6 6 6 7 8 7 7 7 7 7 7 8 9 9 9 10 10 10 10 11 11 11 11 11 10 10 10 12 13 11 9 10 10 7
10 9 9 8 8 8 7 7 6 6 6 6 7 5 5 5 5 4 4 5 6 6 6 8 8 9 8 11 14 12 10 10 10 10 8 7 8 10 12 12 13 14 12
11 10 10 10 9 9 8 8 7 5 6 6 5 5 4 4 4 3 3 4 4 4 5 6 6 8 8 11 12 14 9 9 9 9 8 6 6 7 7 9 10 10 11
10 10 9 9 8 7 6 6 5 5 6 5 5 5 4 4 4 4 4 4 3 3 4 5 5 5 6 9 10 11 8 6 6 7 8 8 8 8 9 7 7 6 6
11 9 8 7 6 6 6 6 5 5 5 5 5 5 5 5 4 4 4 3 3 3 3 2 3 4 4 7 9 9 4 4 4 4 5 6 7 11 13 9 8 6 4
7 6 5 4 4 4 5 7 6 5 6 5 5 4 4 5 5 4 3 2 2 2 2 2 2 2 3 5 7 8 4 4 3 3 4 6 9 12 15 10 9 9 7
6 5 5 4 4 4 6 7 6 6 5 4 4 4 4 4 4 3 3 3 3 2 2 2 1 1 1 3 7 8 4 4 4 4 4 5 11 14 15 11 7 9 9
4 5 5 4 2 4 6 6 5 4 4 5 5 4 4 3 3 4 3 3 4 3 3 2 1 0 0 2 5 7 6 6 4 4 3 5 11 13 14 10 9 13 11
5 4 6 5 3 2 4 6 4 4 5 5 5 4 4 3 3 4 4 3 3 3 2 2 2 1 0 1 3 5 6 7 3 3 6 8 11 11 9 10 13 10 7
4 4 6 6 3 2 3 3 4 4 6 6 5 4 4 3 3 3 3 3 3 3 2 2 2 1 1 1 1 2 3 4 4 4 5 8 10 7 5 7 8 5 5
3 4 5 5 4 3 4 3 3 4 5 5 4 4 3 4 3 3 2 2 2 2 3 2 2 2 2 3 5 4 3 4 4 5 4 3 4 4 4 4 4 4 5
5 5 6 6 5 4 4 3 2 3 5 5 4 3 3 3 3 3 3 4 3 3 3 3 3 1 2 4 6 7 7 9 11 6 4 4 5 5 6 6 5 5 6
Wind_Direction
223 211 207 204 199 197 196 196 196 193 186 188 191 193 199 196 198 199 197 197 195 193 192 194 192 190 192 194 187 174 176 181 149 123 103 41 114 155 157 151 149 150 145
226 213 206 202 200 199 199 198 199 196 195 198 197 198 195 199 202 200 201 201 199 197 198 197 197 196 195 195 191 178 173 183 173 151 144 170 196 205 173 163 161 159 150
222 215 207 204 202 202 201 200 200 199 198 194 182 175 180 190 200 206 207 207 204 203 202 202 199 198 198 201 200 191 185 190 198 184 163 172 201 180 178 193 178 170 166
222 216 209 205 204 205 202 202 200 200 198 192 190 190 200 208 210 207 207 205 206 207 206 204 203 203 203 205 204 201 197 185 195 208 214 188 159 163 176 190 190 184 183
222 217 211 208 207 205 201 201 199 200 198 196 198 200 209 215 208 200 205 208 208 210 210 208 206 207 208 209 205 202 203 202 199 193 186 196 193 170 162 185 187 196 202
224 222 216 209 208 204 200 199 198 201 198 199 201 205 210 210 203 205 208 210 210 212 213 212 211 211 212 211 210 208 208 210 209 204 193 180 179 190 183 179 181 195 197
222 221 215 209 207 202 200 199 200 203 200 201 205 208 211 211 212 212 212 209 210 213 214 211 213 213 214 213 210 210 213 213 212 213 214 212 207 181 180 177 167 173 174
223 220 215 210 208 205 202 200 202 206 202 203 208 211 212 213 217 217 215 213 215 216 212 210 214 215 214 213 211 214 217 215 218 221 219 219 218 205 191 178 164 164 184
224 222 218 212 208 205 203 201 203 207 205 206 208 211 211 213 217 216 215 217 218 215 211 211 214 215 214 213 212 218 218 217 220 222 221 222 221 213 209 191 181 177 190
227 222 217 212 209 206 204 203 205 207 207 206 207 210 212 214 216 214 215 216 216 212 209 211 214 215 215 215 215 220 219 219 221 220 220 222 219 213 209 203 200 195 196
221 219 217 211 205 201 198 200 205 208 208 208 210 212 213 214 214 216 218 218 216 212 212 213 214 215 215 214 216 220 216 220 223 219 220 222 213 212 209 203 197 198 184
216 214 209 199 195 198 199 201 204 208 211 209 209 214 215 213 215 219 220 216 216 214 213 212 214 215 216 214 216 219 217 219 221 219 217 220 210 213 206 202 203 200 185
212 207 201 201 202 203 203 204 205 210 210 205 208 213 215 215 218 220 218 215 216 215 213 212 214 215 215 215 216 217 217 219 220 216 214 214 204 210 207 200 200 192 177
207 204 210 213 210 206 205 206 211 207 203 202 207 214 217 217 219 218 215 215 214 215 214 215 217 216 214 213 213 214 216 217 218 216 213 210 204 206 201 197 195 180 169
214 213 215 216 214 212 212 209 211 203 193 198 209 219 219 218 217 216 215 213 212 215 215 215 218 216 214 212 209 211 214 214 215 213 211 209 207 205 197 192 187 176 172
218 219 219 218 216 213 212 208 210 202 186 198 213 214 210 211 215 216 215 214 216 215 212 214 213 215 216 211 205 204 210 210 209 210 207 204 198 199 197 193 187 180 176
216 216 215 214 214 211 204 205 205 186 183 199 207 203 198 202 207 202 204 214 218 215 217 220 216 220 219 208 204 204 205 206 207 203 197 193 191 185 186 183 182 188 190
218 219 218 218 217 209 201 194 175 172 181 192 200 196 191 197 193 187 202 214 213 212 217 219 218 219 218 204 199 199 205 205 203 198 193 189 185 183 174 167 171 176 179
215 215 212 209 204 199 188 167 166 169 178 196 202 196 187 190 189 195 205 203 197 207 211 211 208 213 213 198 194 189 185 191 195 187 185 182 182 179 170 165 166 162 158
213 205 196 187 188 194 161 157 170 173 193 202 198 184 181 185 190 191 187 178 176 191 182 196 202 208 212 196 192 182 171 179 176 168 177 188 182 177 175 173 171 173 166
203 189 170 170 184 166 149 162 171 190 194 167 159 162 167 172 172 163 158 156 152 152 156 156 139 172 199 199 195 186 176 179 175 179 184 192 186 184 185 181 180 173 152
183 168 153 151 143 144 149 162 180 178 145 143 146 149 147 145 148 149 146 146 149 152 153 145 128 73 158 196 198 190 186 170 171 181 177 182 185 189 187 181 172 157 144
171 155 148 140 118 122 147 163 170 143 137 136 139 139 135 134 140 146 149 146 152 159 165 162 171 182 135 194 194 189 180 170 159 161 169 176 184 183 182 178 166 154 152
153 143 138 138 129 97 102 133 133 134 135 138 135 134 134 130 124 124 136 145 155 163 166 173 178 168 162 175 162 159 156 154 145 137 153 168 174 168 153 163 166 163 170
113 117 128 129 118 94 81 76 103 128 131 131 129 129 127 132 127 118 120 137 140 156 165 179 173 175 200 207 189 173 168 160 153 135 130 145 156 166 164 167 170 169 171
112 111 110 111 103 92 78 58 69 123 133 131 132 132 129 128 127 122 97 79 92 105 124 145 155 184 210 189 191 192 184 171 159 144 160 173 180 185 184 185 187 188 191